Location: Vancouver
(49.2500°N, 123.1330°W)
Time: 20:12:36
(UTC-08:00)

Cosmos 676 Rocket - Visible Passes

Search period start: 21 December 2014 00:00
Search period end: 31 December 2014 00:00
Orbit: 755 x 786 km, 74.0° (Epoch: 21 December)

Date Brightness Start Highest point End Pass type
(mag) Time Alt. Az. Time Alt. Az. Time Alt. Az.
27 Dec 6.2 07:26:55 10° N 07:30:30 18° NE 07:34:03 10° E visible
28 Dec 6.4 06:51:18 10° NNE 06:53:41 13° NE 06:56:02 10° ENE visible
30 Dec 5.8 07:19:33 10° N 07:23:56 26° NE 07:28:16 10° ESE visible
